| time (UTC) | temp C | wind direction | speed KPH | gust KPH | rain 1hr cm | rain 24hr cm | rain mn cm | humidity % | barometer mb |
| 20260502192250 | 10 | 223 | 6.4 | 12.9 | 0.00 | 0.00 | 0.00 | 29 | 1027.8 |
| 20260502191746 | 10 | 259 | 4.8 | 11.3 | 0.00 | 0.00 | 0.00 | 28 | 1027.8 |
| 20260502191244 | 10 | 224 | 3.2 | 4.8 | 0.00 | 0.00 | 0.00 | 27 | 1027.9 |
| 20260502190741 | 9 | 230 | 4.8 | 12.9 | 0.00 | 0.00 | 0.00 | 28 | 1027.8 |
| 20260502190238 | 10 | 53 | 12.9 | 16.1 | 0.00 | 0.00 | 0.00 | 28 | 1028.1 |
| 20260502185733 | 9 | 340 | 8.0 | 12.9 | 0.00 | 0.00 | 0.00 | 31 | 1028.1 |
| 20260502185229 | 10 | 209 | 1.6 | 9.7 | 0.00 | 0.00 | 0.00 | 26 | 1028.1 |
| 20260502184726 | 10 | 229 | 6.4 | 9.7 | 0.00 | 0.00 | 0.00 | 25 | 1027.9 |
| 20260502184222 | 9 | 130 | 1.6 | 9.7 | 0.00 | 0.00 | 0.00 | 31 | 1028.1 |
| 20260502183719 | 10 | 323 | 1.6 | 9.7 | 0.00 | 0.00 | 0.00 | 27 | 1028.2 |
| 20260502183214 | 10 | 275 | 1.6 | 6.4 | 0.00 | 0.00 | 0.00 | 33 | 1028.2 |
| 20260502182710 | 8 | 28 | 3.2 | 6.4 | 0.00 | 0.00 | 0.00 | 29 | 1028.3 |
| 20260502182205 | 8 | 100 | 4.8 | 6.4 | 0.00 | 0.00 | 0.00 | 28 | 1028.5 |
| 20260502181703 | 8 | 29 | 3.2 | 11.3 | 0.00 | 0.00 | 0.00 | 29 | 1028.2 |
| 20260502181202 | 8 | 9 | 3.2 | 14.5 | 0.00 | 0.00 | 0.00 | 34 | 1028.3 |
| 20260502180659 | 10 | 156 | 1.6 | 6.4 | 0.00 | 0.00 | 0.00 | 30 | 1028.5 |
| 20260502180156 | 8 | 79 | 4.8 | 6.4 | 0.00 | 0.00 | 0.00 | 30 | 1028.7 |
| 20260502170120 | 8 | 234 | 3.2 | 4.8 | 0.00 | 0.00 | 0.00 | 32 | 1028.5 |
| 20260502164107 | 6 | 287 | 6.4 | 14.5 | 0.00 | 0.00 | 0.00 | 32 | 1028.3 |
| 20260502163603 | 7 | 348 | 6.4 | 11.3 | 0.00 | 0.00 | 0.00 | 32 | 1028.3 |
| 20260502163059 | 6 | 25 | 4.8 | 9.7 | 0.00 | 0.00 | 0.00 | 31 | 1028.3 |
| 20260502162556 | 7 | 315 | 12.9 | 14.5 | 0.00 | 0.00 | 0.00 | 32 | 1028.6 |
| 20260502162054 | 7 | 309 | 1.6 | 4.8 | 0.00 | 0.00 | 0.00 | 33 | 1028.5 |
| 20260502161550 | 6 | 333 | 4.8 | 11.3 | 0.00 | 0.00 | 0.00 | 34 | 1028.5 |
| 20260502161048 | 7 | 287 | 6.4 | 12.9 | 0.00 | 0.00 | 0.00 | 32 | 1028.3 |
| 20260502160546 | 6 | 253 | 0.0 | 6.4 | 0.00 | 0.00 | 0.00 | 35 | 1028.3 |
| 20260502151959 | 5 | 251 | 0.0 | 1.6 | 0.00 | 0.00 | 0.00 | 35 | 1028.6 |
| 20260502151455 | 5 | 325 | 8.0 | 9.7 | 0.00 | 0.00 | 0.00 | 34 | 1029.0 |
| 20260502150953 | 5 | 265 | 0.0 | 4.8 | 0.00 | 0.00 | 0.00 | 32 | 1028.9 |
| 20260502150450 | 5 | 297 | 1.6 | 3.2 | 0.00 | 0.00 | 0.00 | 34 | 1028.9 |
| 20260502130336 | 1 | 246 | 0.0 | 4.8 | 0.00 | 0.00 | 0.00 | 49 | 1028.5 |
| 20260502123318 | 0 | 246 | 3.2 | 3.2 | 0.00 | 0.00 | 0.00 | 57 | 1028.3 |
| 20260502122815 | 0 | 228 | 3.2 | 6.4 | 0.00 | 0.00 | 0.00 | 55 | 1028.2 |
| 20260502122310 | 0 | 225 | 4.8 | 4.8 | 0.00 | 0.00 | 0.00 | 55 | 1028.3 |
| 20260502121809 | 0 | 220 | 4.8 | 4.8 | 0.00 | 0.00 | 0.00 | 55 | 1028.3 |
| 20260502121306 | 0 | 229 | 3.2 | 4.8 | 0.00 | 0.00 | 0.00 | 55 | 1028.3 |
| 20260502120803 | 0 | 239 | 4.8 | 6.4 | 0.00 | 0.00 | 0.00 | 54 | 1028.2 |
| 20260502120300 | 0 | 219 | 4.8 | 6.4 | 0.00 | 0.00 | 0.00 | 54 | 1027.8 |
| 20260502115757 | -1 | 235 | 3.2 | 4.8 | 0.00 | 0.00 | 0.00 | 57 | 1028.2 |
| 20260502115254 | 0 | 214 | 3.2 | 4.8 | 0.00 | 0.00 | 0.00 | 55 | 1028.1 |
| 20260502114750 | 0 | 222 | 3.2 | 4.8 | 0.00 | 0.00 | 0.00 | 57 | 1027.8 |
| 20260502114247 | 0 | 216 | 4.8 | 6.4 | 0.00 | 0.00 | 0.00 | 57 | 1028.1 |
| 20260502113744 | -1 | 230 | 1.6 | 4.8 | 0.00 | 0.00 | 0.00 | 60 | 1028.1 |
| 20260502113242 | -1 | 217 | 3.2 | 4.8 | 0.00 | 0.00 | 0.00 | 61 | 1028.2 |
| 20260502112740 | -1 | 211 | 4.8 | 4.8 | 0.00 | 0.00 | 0.00 | 61 | 1027.9 |
| 20260502112237 | 0 | 222 | 4.8 | 4.8 | 0.00 | 0.00 | 0.00 | 58 | 1027.9 |
| 20260502111734 | 0 | 228 | 3.2 | 4.8 | 0.00 | 0.00 | 0.00 | 61 | 1028.1 |
| 20260502111232 | 0 | 228 | 6.4 | 6.4 | 0.00 | 0.00 | 0.00 | 56 | 1027.9 |
| 20260502110729 | 0 | 242 | 4.8 | 9.7 | 0.00 | 0.00 | 0.00 | 55 | 1028.2 |
| 20260502110227 | 0 | 230 | 4.8 | 6.4 | 0.00 | 0.00 | 0.00 | 55 | 1028.1 |
| 20260502105724 | 0 | 223 | 4.8 | 6.4 | 0.00 | 0.00 | 0.00 | 55 | 1028.1 |
| 20260502105220 | 0 | 225 | 3.2 | 6.4 | 0.00 | 0.00 | 0.00 | 57 | 1027.8 |
| 20260502104718 | 0 | 198 | 6.4 | 9.7 | 0.00 | 0.00 | 0.00 | 55 | 1028.1 |
| 20260502104216 | 0 | 251 | 4.8 | 9.7 | 0.00 | 0.00 | 0.00 | 57 | 1028.2 |
| 20260502103713 | 0 | 237 | 4.8 | 6.4 | 0.00 | 0.00 | 0.00 | 56 | 1028.1 |
| 20260502103211 | 0 | 222 | 3.2 | 4.8 | 0.00 | 0.00 | 0.00 | 58 | 1028.2 |
| 20260502102707 | 0 | 230 | 4.8 | 6.4 | 0.00 | 0.00 | 0.00 | 57 | 1028.1 |
| 20260502102204 | 0 | 239 | 3.2 | 11.3 | 0.00 | 0.00 | 0.00 | 57 | 1028.2 |
| 20260502101702 | -1 | 222 | 3.2 | 4.8 | 0.00 | 0.00 | 0.00 | 64 | 1027.9 |
| 20260502101200 | -1 | 229 | 6.4 | 6.4 | 0.00 | 0.00 | 0.00 | 64 | 1028.2 |
| 20260502100658 | -1 | 233 | 3.2 | 4.8 | 0.00 | 0.00 | 0.00 | 63 | 1027.9 |
| 20260502100156 | -1 | 216 | 4.8 | 6.4 | 0.00 | 0.00 | 0.00 | 65 | 1027.9 |
| 20260502091130 | -2 | 218 | 4.8 | 6.4 | 0.00 | 0.00 | 0.00 | 75 | 1027.8 |
| 20260502090627 | -2 | 201 | 4.8 | 4.8 | 0.00 | 0.00 | 0.00 | 77 | 1027.8 |
| 20260502090124 | -2 | 209 | 4.8 | 4.8 | 0.00 | 0.00 | 0.00 | 77 | 1027.7 |
| 20260502071522 | -2 | 204 | 4.8 | 4.8 | 0.00 | 0.00 | 0.00 | 81 | 1028.3 |
| 20260502071020 | -2 | 212 | 4.8 | 6.4 | 0.00 | 0.00 | 0.00 | 79 | 1028.3 |
| 20260502070518 | -2 | 206 | 4.8 | 4.8 | 0.00 | 0.00 | 0.00 | 81 | 1028.5 |
| 20260502070016 | -2 | 211 | 4.8 | 4.8 | 0.00 | 0.00 | 0.00 | 82 | 1028.5 |
| 20260502065514 | -3 | 212 | 4.8 | 4.8 | 0.00 | 0.00 | 0.00 | 82 | 1028.3 |
| 20260502065011 | -3 | 210 | 3.2 | 4.8 | 0.00 | 0.00 | 0.00 | 83 | 1028.6 |
| 20260502064510 | -3 | 215 | 3.2 | 4.8 | 0.00 | 0.00 | 0.00 | 83 | 1028.6 |
| 20260502064006 | -3 | 208 | 4.8 | 4.8 | 0.00 | 0.00 | 0.00 | 83 | 1028.6 |
| 20260502063504 | -3 | 208 | 4.8 | 4.8 | 0.00 | 0.00 | 0.00 | 83 | 1028.5 |
| 20260502063002 | -2 | 211 | 3.2 | 4.8 | 0.00 | 0.00 | 0.00 | 83 | 1028.6 |
| 20260502062458 | -2 | 207 | 4.8 | 4.8 | 0.00 | 0.00 | 0.00 | 83 | 1028.7 |
| 20260502061957 | -2 | 211 | 4.8 | 4.8 | 0.00 | 0.00 | 0.00 | 84 | 1028.6 |
| 20260502061454 | -2 | 210 | 3.2 | 4.8 | 0.00 | 0.00 | 0.00 | 83 | 1028.5 |
| 20260502060950 | -2 | 214 | 3.2 | 4.8 | 0.00 | 0.00 | 0.00 | 84 | 1028.6 |
| 20260502060446 | -2 | 218 | 3.2 | 3.2 | 0.00 | 0.00 | 0.00 | 83 | 1028.6 |
| 20260502055943 | -2 | 219 | 3.2 | 4.8 | 0.00 | 0.89 | 0.89 | 82 | 1029.0 |
| 20260502055440 | -2 | 215 | 3.2 | 4.8 | 0.00 | 0.89 | 0.89 | 83 | 1028.5 |
| 20260502054935 | -2 | 220 | 3.2 | 3.2 | 0.00 | 0.89 | 0.89 | 83 | 1028.7 |
| 20260502054432 | -2 | 212 | 4.8 | 4.8 | 0.00 | 0.89 | 0.89 | 83 | 1028.5 |
| 20260502053929 | -2 | 218 | 3.2 | 4.8 | 0.00 | 0.89 | 0.89 | 83 | 1028.7 |
| 20260502053426 | -2 | 209 | 4.8 | 4.8 | 0.00 | 0.89 | 0.89 | 83 | 1028.7 |
| 20260502052924 | -2 | 214 | 3.2 | 4.8 | 0.00 | 0.89 | 0.89 | 84 | 1028.6 |
| 20260502052422 | -2 | 220 | 4.8 | 4.8 | 0.00 | 0.89 | 0.89 | 82 | 1028.7 |
| 20260502051920 | -2 | 207 | 4.8 | 4.8 | 0.00 | 0.89 | 0.89 | 80 | 1028.6 |
| 20260502051418 | -2 | 201 | 4.8 | 4.8 | 0.00 | 0.89 | 0.89 | 80 | 1028.6 |
| 20260502050914 | -2 | 222 | 3.2 | 4.8 | 0.00 | 0.89 | 0.89 | 80 | 1028.6 |
| 20260502050411 | -2 | 225 | 1.6 | 4.8 | 0.00 | 0.89 | 0.89 | 80 | 1028.5 |
| 20260502045908 | -2 | 225 | 3.2 | 4.8 | 0.00 | 0.89 | 0.89 | 80 | 1028.6 |
| 20260502045405 | -2 | 212 | 4.8 | 4.8 | 0.00 | 0.89 | 0.89 | 79 | 1028.6 |
| 20260502044902 | -1 | 207 | 3.2 | 4.8 | 0.00 | 0.89 | 0.89 | 79 | 1028.6 |
| 20260502044358 | -1 | 233 | 1.6 | 3.2 | 0.00 | 0.89 | 0.89 | 79 | 1028.5 |
| 20260502043855 | -1 | 246 | 3.2 | 4.8 | 0.00 | 0.89 | 0.89 | 80 | 1028.3 |
| 20260502043353 | -1 | 242 | 0.0 | 3.2 | 0.00 | 0.89 | 0.89 | 80 | 1028.3 |
| 20260502042852 | -1 | 225 | 1.6 | 3.2 | 0.00 | 0.89 | 0.89 | 82 | 1028.2 |
| 20260502042350 | -1 | 211 | 3.2 | 4.8 | 0.00 | 0.89 | 0.89 | 80 | 1028.5 |
| 20260502041847 | -1 | 226 | 1.6 | 3.2 | 0.00 | 0.89 | 0.89 | 82 | 1028.3 |
| 20260502041344 | -1 | 225 | 3.2 | 4.8 | 0.00 | 0.89 | 0.89 | 82 | 1028.3 |
| 20260502040841 | -2 | 202 | 4.8 | 4.8 | 0.00 | 0.89 | 0.89 | 81 | 1028.3 |
| 20260502040338 | -2 | 215 | 3.2 | 4.8 | 0.00 | 0.89 | 0.89 | 83 | 1028.3 |
| 20260502035834 | -1 | 226 | 3.2 | 4.8 | 0.00 | 0.89 | 0.89 | 83 | 1028.1 |
| 20260502035331 | -1 | 215 | 3.2 | 4.8 | 0.00 | 0.89 | 0.89 | 84 | 1027.9 |
| 20260502034828 | -1 | 211 | 3.2 | 4.8 | 0.00 | 0.89 | 0.89 | 83 | 1028.1 |
| 20260502034326 | -1 | 216 | 4.8 | 4.8 | 0.00 | 0.89 | 0.89 | 82 | 1028.2 |
| 20260502033825 | -1 | 206 | 4.8 | 4.8 | 0.00 | 0.89 | 0.89 | 83 | 1027.9 |
| 20260502033322 | -1 | 207 | 4.8 | 4.8 | 0.00 | 0.89 | 0.89 | 83 | 1027.7 |
| 20260502032818 | -1 | 210 | 4.8 | 4.8 | 0.00 | 0.89 | 0.89 | 82 | 1027.8 |
| 20260502032314 | -1 | 209 | 4.8 | 4.8 | 0.00 | 0.89 | 0.89 | 82 | 1027.5 |
| 20260502031812 | -1 | 214 | 4.8 | 4.8 | 0.00 | 0.89 | 0.89 | 82 | 1027.8 |
| 20260502031310 | -1 | 210 | 4.8 | 4.8 | 0.00 | 0.89 | 0.89 | 82 | 1027.7 |
| 20260502030809 | -1 | 220 | 4.8 | 4.8 | 0.00 | 0.89 | 0.89 | 82 | 1027.5 |
| 20260502030306 | -1 | 212 | 3.2 | 4.8 | 0.00 | 0.89 | 0.89 | 82 | 1027.5 |
| 20260502025803 | -1 | 216 | 4.8 | 4.8 | 0.00 | 0.89 | 0.89 | 81 | 1027.4 |
| 20260502025301 | -1 | 211 | 4.8 | 4.8 | 0.00 | 0.89 | 0.89 | 81 | 1027.4 |
| 20260502024759 | -1 | 210 | 4.8 | 4.8 | 0.00 | 0.89 | 0.89 | 83 | 1027.4 |
| 20260502024256 | -1 | 209 | 4.8 | 4.8 | 0.00 | 0.89 | 0.89 | 82 | 1027.1 |
| 20260502023754 | -1 | 216 | 3.2 | 4.8 | 0.00 | 0.89 | 0.89 | 81 | 1027.3 |
| 20260502023252 | -1 | 220 | 4.8 | 4.8 | 0.00 | 0.89 | 0.89 | 82 | 1027.0 |
| 20260502022749 | -1 | 212 | 4.8 | 4.8 | 0.00 | 0.89 | 0.89 | 81 | 1027.0 |
| 20260502022245 | -1 | 208 | 4.8 | 4.8 | 0.00 | 0.89 | 0.89 | 83 | 1027.0 |
| 20260502021742 | -1 | 214 | 4.8 | 4.8 | 0.00 | 0.89 | 0.89 | 81 | 1027.0 |
| 20260502021240 | -1 | 214 | 4.8 | 4.8 | 0.00 | 0.89 | 0.89 | 84 | 1026.8 |
| 20260502020737 | -1 | 208 | 4.8 | 4.8 | 0.00 | 0.89 | 0.89 | 82 | 1026.9 |
| 20260502020234 | 0 | 215 | 4.8 | 4.8 | 0.00 | 0.89 | 0.89 | 81 | 1026.9 |
| 20260502015732 | 0 | 220 | 3.2 | 4.8 | 0.00 | 0.89 | 0.89 | 81 | 1026.9 |
| 20260502015228 | 0 | 212 | 4.8 | 4.8 | 0.00 | 0.89 | 0.89 | 81 | 1026.9 |
| 20260502014725 | 0 | 213 | 3.2 | 4.8 | 0.00 | 0.89 | 0.89 | 79 | 1026.4 |
| 20260502014222 | 0 | 220 | 3.2 | 4.8 | 0.00 | 0.89 | 0.89 | 79 | 1026.5 |
| 20260502013719 | 0 | 221 | 3.2 | 3.2 | 0.00 | 0.89 | 0.89 | 78 | 1026.5 |
| 20260502013214 | 0 | 218 | 3.2 | 4.8 | 0.00 | 0.89 | 0.89 | 77 | 1026.6 |
| 20260502012711 | 1 | 233 | 0.0 | 0.0 | 0.00 | 0.89 | 0.89 | 77 | 1026.5 |
| 20260502012209 | 2 | 269 | 0.0 | 0.0 | 0.00 | 0.89 | 0.89 | 54 | 1026.4 |
| 20260502011706 | 2 | 253 | 0.0 | 0.0 | 0.00 | 0.89 | 0.89 | 66 | 1026.5 |
| 20260502011201 | 3 | 256 | 0.0 | 0.0 | 0.00 | 0.89 | 0.89 | 60 | 1026.2 |
| 20260502010700 | 3 | 262 | 0.0 | 0.0 | 0.00 | 0.89 | 0.89 | 49 | 1026.2 |
| 20260502010155 | 3 | 291 | 3.2 | 4.8 | 0.00 | 0.89 | 0.89 | 51 | 1026.5 |
| 20260502005653 | 3 | 305 | 3.2 | 4.8 | 0.00 | 0.89 | 0.89 | 51 | 1026.4 |
| 20260502005150 | 3 | 264 | 0.0 | 9.7 | 0.00 | 0.89 | 0.89 | 50 | 1026.6 |
| 20260502004646 | 3 | 309 | 1.6 | 3.2 | 0.00 | 0.89 | 0.89 | 51 | 1026.4 |
| 20260502004143 | 3 | 313 | 0.0 | 1.6 | 0.00 | 0.89 | 0.89 | 54 | 1026.4 |
| 20260502003641 | 3 | 267 | 3.2 | 3.2 | 0.00 | 0.89 | 0.89 | 48 | 1026.2 |
| 20260502003138 | 3 | 253 | 1.6 | 3.2 | 0.00 | 0.89 | 0.89 | 52 | 1026.0 |
| 20260502002634 | 5 | 263 | 0.0 | 1.6 | 0.00 | 0.89 | 0.89 | 51 | 1026.1 |
| 20260502002131 | 3 | 262 | 0.0 | 0.0 | 0.00 | 0.89 | 0.89 | 49 | 1026.1 |
| 20260502001629 | 3 | 245 | 3.2 | 4.8 | 0.00 | 0.89 | 0.89 | 52 | 1026.0 |
| 20260502001126 | 3 | 220 | 3.2 | 6.4 | 0.00 | 0.89 | 0.89 | 53 | 1026.1 |
| 20260502000624 | 3 | 316 | 3.2 | 4.8 | 0.00 | 0.89 | 0.89 | 52 | 1026.2 |
| 20260502000121 | 3 | 335 | 6.4 | 11.3 | 0.00 | 0.89 | 0.89 | 50 | 1026.4 |
| 20260501235617 | 3 | 7 | 8.0 | 11.3 | 0.00 | 0.89 | 0.89 | 50 | 1026.2 |
| 20260501235114 | 3 | 317 | 3.2 | 4.8 | 0.00 | 0.89 | 0.89 | 45 | 1026.2 |
| 20260501234609 | 3 | 16 | 6.4 | 11.3 | 0.00 | 0.89 | 0.89 | 48 | 1026.1 |
| 20260501234107 | 3 | 264 | 4.8 | 11.3 | 0.00 | 0.89 | 0.89 | 48 | 1025.8 |
| 20260501233605 | 3 | 8 | 3.2 | 11.3 | 0.00 | 0.89 | 0.89 | 52 | 1026.4 |
| 20260501233102 | 3 | 287 | 3.2 | 3.2 | 0.00 | 0.89 | 0.89 | 49 | 1025.8 |
| 20260501232557 | 3 | 338 | 6.4 | 12.9 | 0.00 | 0.89 | 0.89 | 51 | 1025.8 |
| 20260501232055 | 3 | 314 | 1.6 | 3.2 | 0.00 | 0.89 | 0.89 | 51 | 1025.8 |
| 20260501231553 | 3 | 57 | 4.8 | 9.7 | 0.00 | 0.89 | 0.89 | 50 | 1025.7 |
| 20260501231051 | 5 | 50 | 1.6 | 4.8 | 0.00 | 0.89 | 0.89 | 54 | 1025.4 |
| 20260501230549 | 5 | 254 | 1.6 | 9.7 | 0.00 | 0.89 | 0.89 | 42 | 1025.4 |
| 20260501230047 | 5 | 153 | 6.4 | 6.4 | 0.00 | 0.89 | 0.89 | 43 | 1025.4 |
| 20260501225544 | 5 | 262 | 1.6 | 3.2 | 0.00 | 0.89 | 0.89 | 47 | 1025.7 |
| 20260501225040 | 3 | 87 | 3.2 | 11.3 | 0.00 | 0.89 | 0.89 | 50 | 1025.6 |
| 20260501224538 | 3 | 20 | 3.2 | 3.2 | 0.00 | 0.89 | 0.89 | 55 | 1025.6 |
| 20260501224035 | 4 | 123 | 4.8 | 4.8 | 0.00 | 0.89 | 0.89 | 59 | 1025.7 |
| 20260501223531 | 4 | 348 | 3.2 | 6.4 | 0.00 | 0.89 | 0.89 | 53 | 1025.4 |
| 20260501223027 | 3 | 240 | 1.6 | 4.8 | 0.00 | 0.89 | 0.89 | 52 | 1025.4 |
| 20260501222524 | 3 | 268 | 0.0 | 0.0 | 0.00 | 0.89 | 0.89 | 49 | 1025.4 |
| 20260501222021 | 3 | 332 | 3.2 | 3.2 | 0.00 | 0.89 | 0.89 | 51 | 1025.2 |
| 20260501221517 | 3 | 296 | 4.8 | 4.8 | 0.00 | 0.89 | 0.89 | 53 | 1025.6 |
| 20260501221015 | 3 | 299 | 4.8 | 11.3 | 0.00 | 0.89 | 0.89 | 53 | 1025.3 |
| 20260501220513 | 4 | 147 | 4.8 | 6.4 | 0.00 | 0.89 | 0.89 | 50 | 1025.4 |
| 20260501220009 | 3 | 99 | 3.2 | 11.3 | 0.00 | 0.89 | 0.89 | 60 | 1025.4 |
| 20260501215505 | 3 | 282 | 1.6 | 4.8 | 0.00 | 0.89 | 0.89 | 50 | 1025.4 |
| 20260501215001 | 3 | 30 | 9.7 | 12.9 | 0.00 | 0.89 | 0.89 | 55 | 1025.6 |
| 20260501214456 | 4 | 304 | 1.6 | 16.1 | 0.00 | 0.89 | 0.89 | 57 | 1025.3 |
| 20260501213952 | 5 | 333 | 8.0 | 11.3 | 0.00 | 0.89 | 0.89 | 57 | 1025.4 |
| 20260501213450 | 5 | 251 | 1.6 | 6.4 | 0.00 | 0.89 | 0.89 | 55 | 1025.4 |
| 20260501212944 | 4 | 38 | 4.8 | 4.8 | 0.00 | 0.89 | 0.89 | 52 | 1025.7 |
| 20260501212441 | 3 | 324 | 8.0 | 11.3 | 0.00 | 0.89 | 0.89 | 60 | 1025.7 |
| 20260501211938 | 4 | 74 | 6.4 | 11.3 | 0.00 | 0.89 | 0.89 | 57 | 1025.7 |
| 20260501211436 | 3 | 357 | 4.8 | 11.3 | 0.00 | 0.89 | 0.89 | 57 | 1025.7 |
| 20260501210933 | 3 | 249 | 3.2 | 6.4 | 0.00 | 0.89 | 0.89 | 64 | 1025.7 |
| 20260501210430 | 2 | 300 | 1.6 | 4.8 | 0.00 | 0.89 | 0.89 | 66 | 1026.1 |
| 20260501205926 | 2 | 306 | 1.6 | 6.4 | 0.00 | 0.89 | 0.89 | 69 | 1025.8 |
| 20260501205423 | 2 | 289 | 3.2 | 4.8 | 0.00 | 0.89 | 0.89 | 56 | 1025.8 |
| 20260501204920 | 2 | 58 | 6.4 | 11.3 | 0.00 | 0.89 | 0.89 | 55 | 1025.7 |
| 20260501204416 | 3 | 137 | 4.8 | 6.4 | 0.00 | 0.89 | 0.89 | 59 | 1025.8 |
| 20260501203913 | 3 | 37 | 4.8 | 11.3 | 0.00 | 0.89 | 0.89 | 64 | 1025.7 |
| 20260501203410 | 3 | 7 | 11.3 | 14.5 | 0.00 | 0.89 | 0.89 | 59 | 1025.7 |
| 20260501202907 | 2 | 278 | 1.6 | 3.2 | 0.00 | 0.89 | 0.89 | 63 | 1025.8 |
| 20260501202404 | 3 | 335 | 3.2 | 4.8 | 0.00 | 0.89 | 0.89 | 63 | 1025.7 |
| 20260501201900 | 3 | 341 | 12.9 | 14.5 | 0.00 | 0.89 | 0.89 | 55 | 1025.7 |
| 20260501201357 | 5 | 45 | 6.4 | 6.4 | 0.00 | 0.89 | 0.89 | 52 | 1025.6 |
| 20260501200853 | 5 | 244 | 0.0 | 6.4 | 0.00 | 0.89 | 0.89 | 51 | 1025.6 |
| 20260501200351 | 3 | 342 | 1.6 | 3.2 | 0.00 | 0.89 | 0.89 | 50 | 1026.0 |
| 20260501195849 | 2 | 264 | 1.6 | 6.4 | 0.00 | 0.89 | 0.89 | 59 | 1026.0 |
| 20260501195344 | 2 | 269 | 0.0 | 4.8 | 0.00 | 0.89 | 0.89 | 60 | 1025.7 |
| 20260501194840 | 3 | 264 | 6.4 | 12.9 | 0.00 | 0.89 | 0.89 | 62 | 1025.7 |
| 20260501194337 | 4 | 285 | 1.6 | 4.8 | 0.00 | 0.89 | 0.89 | 52 | 1025.8 |
| 20260501193833 | 4 | 167 | 1.6 | 4.8 | 0.00 | 0.89 | 0.89 | 50 | 1025.8 |
| 20260501193332 | 3 | 288 | 0.0 | 0.0 | 0.00 | 0.89 | 0.89 | 49 | 1025.4 |
| 20260501192829 | 3 | 259 | 0.0 | 1.6 | 0.00 | 0.89 | 0.89 | 55 | 1025.8 |